User: anonymous   Login
Location: D�derode
(51.8092°N, 10.1065°E)
Time: 02:10:19
(UTC+00:00)
Language:

Meteor 2-6 Rocket - Orbit

View from above orbital plane
View from above orbital plane
View from above satellite
View from above satellite

Ground track
Ground track

The orbit data is extracted from the following two-line orbital elements,

1 11963U 80073B   21060.50553795  .00000045  00000-0  17979-4 0  9992
2 11963  81.2735 252.5926 0075369 206.6673 153.0615 14.09729461 80933
Epoch (UTC): 01 March 2021 12:07:58
Eccentricity: 0.0075369
inclination: 81.2735°
perigee height: 806 km
apogee height: 915 km
right ascension of ascending node: 252.5926°
argument of perigee: 206.6673°
revolutions per day: 14.09729461
mean anomaly at epoch: 153.0615°
orbit number at epoch: 8093

The dashed part of the orbit path shows where the satellite is in the earth's shadow,  

DLR